Other Surface Observations
Issued by NWS

Home | Current Version | Previous Version | Text Only | Print | Product List | Glossary On
Versions: 1 2 3 4 5 6 7 8 9 10 11 12 13 14 15 16 17 18 19 20 21 22 23 24 25 26 27 28 29 30 31 32 33 34 35 36 37 38 39 40 41 42 43 44 45 46 47 48 49 50
000
SXUS52 KTAE 221818
OSOTAE
OSOTAE
North Florida/South Alabama/Southwest Georgia Weather Roundup
National Weather Service Tallahassee Florida
200 PM EDT MON SEP 22 2014

Note: "fair" indicates few or no clouds below 12,000 feet with no
significant weather and/or obstructions to visibility.

!FLZ017-115-028-034-025-221900
...North Florida...

CITY           SKY/WX    TMP DP  RH WIND       PRES   REMARKS
TALLAHASSEE    MOSUNNY   88  62  41 E5        29.99F
APALACHICOLA   SUNNY     87  70  56 SE9       29.99F HX  92
PERRY          MOSUNNY   84  66  54 CALM      30.00F
CROSS CITY       N/A     88  72  58 S3        29.98F HX  94
HOMERVILLE     FAIR      90  64  43 S5        30.01F HX  91
JACKSONVILLE   MOSUNNY   87  61  41 S5        29.99F
$$

!FLZ112-006-005-002-011-221900
...Florida Panhandle...

CITY           SKY/WX    TMP DP  RH WIND       PRES   REMARKS
MARIANNA       MOSUNNY   88  67  49 W7        29.99F HX  91
BONIFAY        FAIR      89  67  47 MISG      29.99F HX  92
PANAMA CITY NW FAIR      90  64  42 CALM      29.98F HX  91
TYNDALL AFB    SUNNY     87  73  64 VRB6      29.99F HX  94
TYND DRONE APT FAIR      85  70  60 MISG      29.98F
DE FUNIAK SPR  FAIR      88  65  46 CALM      30.00F
EGLIN AFB      MOSUNNY   90  68  47 SE2       29.98F HX  94
DESTIN         SUNNY     87  70  56 S8        29.99F HX  92
HURLBURT       SUNNY     88  65  45 S8        29.98F HX  90
CRESTVIEW      MOSUNNY   91  65  41 N7        30.00F HX  93
PENSACOLA      PTSUNNY   87  65  47 NW7       29.99F
$$

!ALZ063-066-221900
...South Alabama...

CITY           SKY/WX    TMP DP  RH WIND       PRES   REMARKS
DOTHAN         MOSUNNY   86  70  58 N13       30.04F HX  90
OZARK CAIRNS   MOSUNNY   87  70  58 NW14      30.00F HX  92
FT RUCKER HELI PTSUNNY   85  69  58 N12G18    30.00F
RUCKER HELI 3  PTSUNNY   83  69  62 N13G18    30.04F
RUCKER HELI 2  FAIR      87  68  52 NW14      30.01S HX  90
FLORALA APT    PTSUNNY   84  70  61 N7        30.01F
ANDALUSIA      MOSUNNY   87  69  54 N10       30.02F HX  91
TROY           TSTM      72  68  87 N5        30.07S
EUFALA         CLOUDY    70  66  88 NW3       30.05F
MOBILE         PTSUNNY   83  71  67 N16       30.03S
$$

!GAZ120>161-221900
...Southwest and South Central Georgia...

CITY           SKY/WX    TMP DP  RH WIND       PRES   REMARKS
THOMASVILLE    FAIR      88  61  40 NW7       30.02F
BAINBRIDGE     SUNNY     91  68  46 SW3       30.00F HX  95
MOODY AFB      MOSUNNY   89  64  44 VRB2      30.01F HX  90
VALDOSTA       MOSUNNY   88  64  44 VRB7      30.01F
MOULTRIE       PTSUNNY   86  64  48 NW5       30.02F HAZE
BLAKELY        PTSUNNY   88  70  55 NW3         N/A  HX  92
ALBANY         PTSUNNY   87  67  51 W5        30.02S HX  90
TIFTON         FAIR      86  62  43 SW8       30.01F
FITZGERALD     FAIR      89  60  38 SW6       30.02F
CORDELE        MOCLDY    84  69  58 N17G23    30.03R
AMERICUS       TSTM      70  68  94 NW3       30.04F
$$

!GMZ750-755-770-775-221900
...Coastal and Buoy Obs...

STATION/POSITION TIME  TEMP    WIND        PRES    VSBY  WAVE
                       AIR SEA DIR/SP/G                  HT/PER
                 (UTC) (F)     (DEG/KT/KT) (MB)    (MI)  (FT/S)
KEATON BEACH     1800   81     250/  4/  5 1015.7F
CEDAR KEY        1800   76     330/  2/  3 1016.0F
C TOWER          1800   79      70/ 11/ 12 1015.7F
APALACHICOLA BUO 1800   81 84  150/  2/  6 1015.3F         2/ 6
PANAMA CITY BUOY 1750   80 85   80/  8/ 10 1015.3F         2/ 6
MOBILE BUOY      1708   82 85   30/ 16/ 17 1016.2          2/ 4
ORANGE BCH AL BU 1800   83 85   10/  2/  4 1016.0F         1/ 4
$$



USA.gov is the U.S. government's official web portal to all federal, state and local government web resources and services.